Flag for Germany Weather past 2 weeks in Bremerhaven, Bremen, Germany

Now
55 °F

Passing clouds.


Feels Like: 53 °F
Forecast: 42 / 62 °F
Wind: 8 mph from West

Location: Nordholz

Current Time: May 23, 2015 at 2:33:37 AM

Latest Report: May 23, 2015 at 1:20 AM


Visibility: N/A

Pressure: 30.15 "Hg

Humidity: 72%

Dew point: 46 °F

Location of BremerhavenLocation

Historic Weather in Bremerhaven — Graph

°F

Bremerhaven temperature yesterday

Maximum temperature yesterday: 66 °F (at 3:20 PM)
Minimum temperature yesterday: 45 °F (at 3:20 AM)
Average temperature yesterday: 55 °F

Past Weeks' High & Low Weather Summary

 TemperatureHumidityPressure
High75 °F (May 11, 5:20 PM)100% (May 8, 1:20 AM)30.33 "Hg (May 8, 1:20 AM)
Low37 °F (May 8, 4:20 AM)36% (May 10, 6:20 PM)29.53 "Hg (May 18, 11:58 PM)
Average51 °F75%30.01 "Hg
* Reported May 8 12:20 AM — May 23 12:20 AM, Bremerhaven, Weather by CustomWeather, © 2015

Note: Actual official high and low records may vary slightly from our data, if they occured in-between our weather recording intervals... More about our weather records

Advertising

Bremerhaven weather history for previous 24 hours

 ConditionsComfort  
Time TempWeatherWind HumidityBarometerVisibility
12:20 AM
Sat, May 23
55 °FPassing clouds.7 mph77%30.18 "HgN/A
11:20 PM
Fri, May 22
55 °FPassing clouds.6 mph77%30.18 "HgN/A
10:20 PM55 °FPartly sunny.7 mph77%30.18 "HgN/A
9:20 PM55 °FPartly sunny.13 mph77%30.18 "HgN/A
8:20 PM57 °FPartly sunny.8 mph67%30.18 "HgN/A
7:20 PM57 °FScattered clouds.12 mph63%30.18 "HgN/A
6:20 PM59 °FPassing clouds.10 mph63%30.18 "HgN/A
5:20 PM63 °FScattered clouds.12 mph64%30.18 "HgN/A
4:20 PM64 °FPassing clouds.8 mph56%30.18 "HgN/A
3:20 PM66 °FPassing clouds.12 mph49%30.21 "HgN/A
2:20 PM64 °FPassing clouds.9 mph52%30.21 "HgN/A
1:20 PM64 °FScattered clouds.12 mph56%30.24 "HgN/A
12:20 PM63 °FScattered clouds.12 mph59%30.24 "HgN/A
11:20 AM61 °FScattered clouds.10 mph63%30.24 "HgN/A
10:20 AM57 °FPartly sunny.9 mph67%30.27 "HgN/A
9:20 AM55 °FPartly sunny.12 mph72%30.27 "HgN/A
8:20 AM54 °FPartly sunny.7 mph77%30.27 "HgN/A
7:20 AM48 °FFog.5 mph94%30.27 "Hg5 mi
6:20 AM46 °FFog.6 mph93%30.27 "HgN/A
5:20 AM45 °FFog.6 mph93%30.27 "HgN/A
4:20 AM46 °FFog.5 mph93%30.27 "HgN/A
3:20 AM45 °FPassing clouds.3 mph93%30.27 "HgN/A
2:20 AM46 °FPassing clouds.6 mph93%30.27 "HgN/A
Weather by CustomWeather, © 2015

See weather overviewHow to use our weather pages